Flag for U.S.A. Weather past 2 weeks in Kennebunk, Maine, U.S.A.

Now
73 °F

Clear.


Feels Like: 76 °F
Forecast: 59 / 77 °F
Wind: 6 mph from Northeast

Location: Sanford Municipal

Current Time: Aug 28, 2014 at 12:06:32 AM

Latest Report: Aug 27, 2014 at 11:35 PM


Visibility: 10 mi

Pressure: 29.84 "Hg

Humidity: 69%

Dew point: 63 °F

Location of KennebunkLocation

Historic Weather in Kennebunk — Graph

°F

Kennebunk temperature yesterday

Maximum temperature yesterday: 88 °F (at 12:35 PM)
Minimum temperature yesterday: 64 °F (at 4:35 AM)
Average temperature yesterday: 75 °F

Past Weeks' High & Low Weather Summary

 TemperatureHumidityPressure
High88 °F (Aug 25, 2:35 PM)94% (Aug 13, 7:35 PM)30.17 "Hg (Aug 13, 7:35 PM)
Low45 °F (Aug 19, 4:55 AM)38% (Aug 18, 1:55 PM)29.65 "Hg (Aug 13, 7:35 PM)
Average65 °F69%30.00 "Hg
* Reported Aug 12 10:15 PM — Aug 27 10:55 PM, Kennebunk, Weather by CustomWeather, © 2014

Note: Actual official high and low records may vary slightly from our data, if they occured in-between our weather recording intervals... More about our weather records

Advertising

Kennebunk weather history for previous 24 hours

 ConditionsComfort  
Time TempWeatherWind HumidityBarometerVisibility
10:55 PM
Aug 27
73 °FClear.8 mph74%29.84 "Hg10 mi
10:35 PM73 °FClear.5 mph78%29.84 "Hg10 mi
10:15 PM72 °FPassing clouds.7 mph83%29.84 "Hg10 mi
9:55 PM70 °FPassing clouds.3 mph78%29.85 "Hg7 mi
9:35 PM70 °FClear.No wind83%29.86 "Hg9 mi
9:15 PM70 °FPassing clouds.3 mph83%29.86 "Hg8 mi
8:55 PM72 °FPassing clouds.No wind83%29.86 "Hg9 mi
8:35 PM72 °FClear.No wind83%29.85 "Hg10 mi
8:15 PM72 °FSunny.No wind78%29.84 "Hg9 mi
7:55 PM73 °FSunny.No wind78%29.84 "Hg10 mi
7:35 PM75 °FSunny.No wind74%29.84 "Hg10 mi
7:15 PM79 °FSunny.No wind65%29.84 "Hg10 mi
6:55 PM81 °FSunny.5 mph62%29.84 "Hg10 mi
6:35 PM82 °FSunny.5 mph58%29.84 "Hg10 mi
6:15 PM82 °FSunny.5 mph58%29.83 "Hg10 mi
5:55 PM84 °FPartly sunny.8 mph55%29.84 "Hg10 mi
5:35 PM84 °FBroken clouds.7 mph55%29.84 "Hg10 mi
5:15 PM84 °FSunny.9 mph51%29.85 "Hg10 mi
4:55 PM86 °FPassing clouds.10 mph52%29.84 "Hg9 mi
4:35 PM86 °FScattered clouds.8 mph49%29.84 "Hg10 mi
4:15 PM88 °FScattered clouds.8 mph46%29.84 "Hg10 mi
3:55 PM88 °FScattered clouds.10 mph46%29.85 "Hg10 mi
3:35 PM88 °FPassing clouds.9 mph46%29.85 "Hg10 mi
3:15 PM88 °FPassing clouds.10 mph43%29.85 "Hg10 mi
2:55 PM86 °FScattered clouds.8 mph49%29.85 "Hg10 mi
1:55 PM88 °FSunny.10 mph46%29.87 "Hg10 mi
1:35 PM88 °FSunny.13 mph46%29.88 "Hg10 mi
1:15 PM88 °FSunny.12 mph46%29.88 "Hg10 mi
12:55 PM88 °FSunny.12 mph46%29.89 "Hg10 mi
12:35 PM88 °FSunny.13 mph49%29.89 "Hg10 mi
12:15 PM84 °FSunny.10 mph51%29.90 "Hg10 mi
10:55 AM82 °FSunny.12 mph55%29.92 "Hg10 mi
10:35 AM82 °FSunny.10 mph55%29.93 "Hg10 mi
10:15 AM81 °FSunny.13 mph58%29.93 "Hg10 mi
9:55 AM79 °FSunny.10 mph58%29.93 "Hg10 mi
9:35 AM79 °FSunny.15 mph58%29.94 "Hg10 mi
9:15 AM75 °FSunny.16 mph65%29.94 "Hg10 mi
8:55 AM75 °FSunny.12 mph65%29.94 "Hg10 mi
8:35 AM73 °FSunny.12 mph69%29.95 "Hg10 mi
7:55 AM72 °FSunny.7 mph73%29.95 "Hg10 mi
7:35 AM70 °FSunny.3 mph73%29.95 "Hg10 mi
7:15 AM68 °FSunny.5 mph78%29.95 "Hg10 mi
6:35 AM64 °FClear.5 mph83%29.95 "Hg10 mi
6:15 AM64 °FClear.No wind83%29.96 "Hg10 mi
5:55 AM66 °FClear.6 mph83%29.96 "Hg10 mi
5:35 AM66 °FClear.7 mph83%29.96 "Hg10 mi
5:15 AM66 °FClear.8 mph83%29.96 "Hg10 mi
4:35 AM64 °FClear.7 mph88%29.96 "Hg10 mi
4:15 AM66 °FClear.3 mph83%29.96 "Hg10 mi
3:55 AM66 °FClear.6 mph83%29.96 "Hg10 mi
3:35 AM66 °FClear.8 mph83%29.96 "Hg10 mi
3:15 AM66 °FClear.8 mph83%29.97 "Hg10 mi
2:55 AM66 °FClear.9 mph83%29.97 "Hg10 mi
2:35 AM66 °FClear.8 mph83%29.98 "Hg10 mi
2:15 AM66 °FClear.9 mph83%29.99 "Hg10 mi
1:55 AM66 °FClear.7 mph83%29.99 "Hg10 mi
1:35 AM66 °FClear.7 mph83%29.99 "Hg10 mi
1:15 AM66 °FClear.7 mph83%30.00 "Hg10 mi
12:55 AM66 °FClear.6 mph83%30.00 "Hg10 mi
12:35 AM68 °FClear.7 mph78%30.01 "Hg10 mi
12:15 AM68 °FClear.9 mph78%30.01 "Hg10 mi
Weather by CustomWeather, © 2014

See weather overviewHow to use our weather pages